Location: Newark
(32.9533°N, 113.4900°W)
Time: 20:04:57
(UTC+00:00)

ISS - Visible Passes

Search period start: 17 October 2019 00:00
Search period end: 27 October 2019 00:00
Orbit: 411 x 421 km, 51.6° (Epoch: 17 October)

Date Brightness Start Highest point End Pass type
(mag) Time Alt. Az. Time Alt. Az. Time Alt. Az.
22 Oct -0.8 12:30:34 10° S 12:32:50 17° SE 12:35:07 10° E visible
24 Oct -3.3 12:29:53 18° SSW 12:32:12 61° SE 12:35:31 10° NE visible
25 Oct -1.7 11:44:21 27° ESE 11:44:21 27° ESE 11:46:40 10° ENE visible
25 Oct -2.3 13:17:44 10° W 13:20:25 22° NW 13:23:08 10° NNE visible
26 Oct -3.2 12:31:30 36° NW 12:31:45 37° NW 12:34:54 10° NNE visible
